Tracking 27423 objects as of 8-Jun-2023
HD Live streaming from Space Station
objects crossing your sky now

COSMOS 1275 DEB

Track COSMOS 1275 DEB now!
10-day predictions


NORAD ID: 12673
Int'l Code: 1981-053AD
Perigee: 851.9 km
Apogee: 919.8 km
Inclination: 82.9 °
Period: 102.5 minutes
Semi major axis: 7256 km
RCS: 0.1532 m2 (medium)
Launch date: June 4, 1981
Source: Commonwealth of Independent States (former USSR) (CIS)
Launch site: PLESETSK MISSILE AND SPACE COMPLEX (PKMTR)

Note: This is SATELLITE DEBRIS
Your satellite tracking list
Your tracking list is empty




NASA's NSSDC Master Catalog

Two Line Element Set (TLE):
1 12673U 81053AD  23159.50642462  .00002948  00000-0  18259-2 0  9995
2 12673  82.8508 298.5579 0046792 219.2800 211.7643 14.04373248119659
Source of the keplerian elements: AFSPC